Regional Weather Roundup
Issued by NWS Cleveland, OH

Home | Current Version | Previous Version | Text Only | Print | Product List | Glossary Off
Versions: 1 2 3 4 5 6 7 8 9 10 11 12 13 14 15 16 17 18 19 20 21 22 23 24 25 26 27 28 29 30 31 32 33 34 35 36 37 38 39 40 41 42 43 44 45 46 47 48 49 50

000
ASUS41 KCLE 191600
RWRCLE
OHIO REGIONAL WEATHER ROUNDUP
NATIONAL WEATHER SERVICE WILMINGTON, OH
1100 AM EST SUN NOV 19 2017

NOTE: "FAIR" INDICATES FEW OR NO CLOUDS BELOW 12,000 FEET WITH NO
SIGNIFICANT WEATHER AND/OR OBSTRUCTIONS TO VISIBILITY.

OHZ001>008-015>018-024>027-034-035-043-044-191700-
   NORTHWEST OHIO

CITY           SKY/WX    TMP DP  RH WIND       PRES   REMARKS
DEFIANCE       CLOUDY    37  28  70 W12G18    29.93R
FINDLAY        CLOUDY    39  31  72 W16       29.90R
TOLEDO EXPRESS CLOUDY    39  32  76 W15G21    29.89R
TOLEDO EXEC    CLOUDY    38  30  73 W15       29.90R
LIMA           NOT AVBL
$$

OHZ009>014-019>023-028>033-038-089-191700-
   NORTHEAST OHIO

CITY           SKY/WX    TMP DP  RH WIND       PRES   REMARKS
CLE-HOPKINS    CLOUDY    39  28  64 W15G26    29.86R
CLE-LAKEFRONT  CLOUDY    40  27  59 W26G32    29.82R
CUY CO. ARPT   FLURRIES  39  28  65 NW18G25   29.82R
LORAIN-ELYRIA  CLOUDY    38  26  62 W16       29.86R
ASHTABULA      LGT SNOW  34  33  96 NW9       29.79R FOG     WCI  27
AKRON-CANTON   PTSUNNY   38  27  64 NW16G24   29.83R
WOOSTER        NOT AVBL
MANSFIELD      CLOUDY    37  30  75 W7        29.86R
YOUNGSTOWN     LGT SNOW  36  31  82 W20G26    29.79R
$$

OHZ042-051>053-060>062-070>072-077>081-191700-
  SOUTHWEST OHIO

CITY           SKY/WX    TMP DP  RH WIND       PRES   REMARKS
CINC-COVINGTON CLOUDY    38  31  76 W21       30.02R
CINC-LUNKEN    CLOUDY    40  31  70 W16G25    30.04R
HAMILTON       CLOUDY    39  31  72 W15G23    30.03R
DAYTON         NOT AVBL
WRIGHT-PAT AFB CLOUDY    38  32  80 W20G28    29.97R
DAYTON GENERAL CLOUDY    37  30  75 W14G21    29.99R
WILMINGTON     CLOUDY    38  32  79 W18       29.97R
$$

OHZ036-037-039>041-045>050-054>059-063>069-073>076-082>088-191700-
  CENTRAL AND SOUTHEAST OHIO

CITY           SKY/WX    TMP DP  RH WIND       PRES   REMARKS
COLUMBUS       CLOUDY    40  33  76 W20G28    29.91R
OSU AIRPORT    CLOUDY    39  33  79 W21G26    29.92R
BOLTON FIELD   CLOUDY    39  32  75 W10G18    29.94R
RICKENBACK AFB NOT AVBL
NEWARK         CLOUDY    40  32  73 W12       29.90R
MARION         CLOUDY    36  31  82 W14G23    29.90R
LANCASTER      CLOUDY    39  33  79 W13       29.92R
ZANESVILLE     CLOUDY    40  30  67 W10G21    29.89R
NEW PHILLY     CLOUDY    39  27  62 W10G22    29.87R
$$



USA.gov is the U.S. government's official web portal to all federal, state and local government web resources and services.